Time,TemperatureF,DewpointF,PressureIn,WindDirection,WindDirectionDegrees,WindSpeedMPH,WindSpeedGustMPH,Humidity,HourlyPrecipIn,Conditions,Clouds,dailyrainin,SoftwareType,DateUTC
2013-01-27 00:21:00,13.9,12.0,30.45,ENE,75,0.0,1.0,91,0.00,,,0.00,weatherlink.com 1.10,2013-01-27 05:21:00,
2013-01-27 00:36:00,14.8,13.0,30.46,ENE,75,1.0,1.0,92,0.00,,,0.00,weatherlink.com 1.10,2013-01-27 05:36:00,
2013-01-27 00:51:00,16.1,14.0,30.45,NE,44,1.0,2.0,90,0.00,,,0.00,weatherlink.com 1.10,2013-01-27 05:51:00,
2013-01-27 01:06:00,16.7,14.0,30.44,ENE,58,0.0,1.0,88,0.00,,,0.00,weatherlink.com 1.10,2013-01-27 06:06:00,
2013-01-27 01:21:00,17.2,14.0,30.45,East,79,0.0,1.0,87,0.00,,,0.00,weatherlink.com 1.10,2013-01-27 06:21:00,
2013-01-27 01:37:00,16.8,14.0,30.45,East,82,0.0,1.0,88,0.00,,,0.00,weatherlink.com 1.10,2013-01-27 06:37:00,
2013-01-27 01:52:00,16.8,14.0,30.45,East,88,0.0,1.0,87,0.00,,,0.00,weatherlink.com 1.10,2013-01-27 06:52:00,
2013-01-27 02:07:00,16.6,14.0,30.45,SE,134,0.0,2.0,88,0.00,,,0.00,weatherlink.com 1.10,2013-01-27 07:07:00,
2013-01-27 02:22:00,16.6,14.0,30.44,SE,124,0.0,2.0,88,0.00,,,0.00,weatherlink.com 1.10,2013-01-27 07:22:00,
2013-01-27 02:37:00,16.8,14.0,30.44,East,84,0.0,2.0,87,0.00,,,0.00,weatherlink.com 1.10,2013-01-27 07:37:00,
2013-01-27 02:52:00,16.8,14.0,30.45,ESE,118,0.0,1.0,87,0.00,,,0.00,weatherlink.com 1.10,2013-01-27 07:52:00,
2013-01-27 03:07:00,17.0,14.0,30.45,ESE,106,0.0,1.0,87,0.00,,,0.00,weatherlink.com 1.10,2013-01-27 08:07:00,
2013-01-27 03:22:00,17.1,14.0,30.45,ESE,105,0.0,1.0,88,0.00,,,0.00,weatherlink.com 1.10,2013-01-27 08:22:00,
2013-01-27 03:37:00,17.2,14.0,30.45,ENE,61,0.0,2.0,88,0.00,,,0.00,weatherlink.com 1.10,2013-01-27 08:37:00,
2013-01-27 03:52:00,17.8,15.0,30.45,ESE,114,0.0,2.0,87,0.00,,,0.00,weatherlink.com 1.10,2013-01-27 08:52:00,
2013-01-27 04:07:00,18.7,16.0,30.45,NE,53,0.0,2.0,87,0.00,,,0.00,weatherlink.com 1.10,2013-01-27 09:07:00,
2013-01-27 04:22:00,19.3,16.0,30.45,ENE,70,1.0,2.0,86,0.00,,,0.00,weatherlink.com 1.10,2013-01-27 09:22:00,
2013-01-27 04:37:00,18.8,15.0,30.45,SE,129,0.0,2.0,86,0.00,,,0.00,weatherlink.com 1.10,2013-01-27 09:37:00,
2013-01-27 04:52:00,18.4,15.0,30.45,ENE,72,0.0,1.0,86,0.00,,,0.00,weatherlink.com 1.10,2013-01-27 09:52:00,
2013-01-27 05:07:00,18.1,15.0,30.45,ENE,76,0.0,2.0,87,0.00,,,0.00,weatherlink.com 1.10,2013-01-27 10:07:00,
2013-01-27 05:22:00,18.0,15.0,30.45,East,95,0.0,2.0,87,0.00,,,0.00,weatherlink.com 1.10,2013-01-27 10:22:00,
2013-01-27 05:37:00,18.1,15.0,30.44,ENE,65,1.0,3.0,88,0.00,,,0.00,weatherlink.com 1.10,2013-01-27 10:37:00,
2013-01-27 05:52:00,18.2,15.0,30.42,NE,45,3.0,4.0,87,0.00,,,0.00,weatherlink.com 1.10,2013-01-27 10:52:00,
2013-01-27 06:07:00,18.3,15.0,30.42,NE,41,1.0,5.0,87,0.00,,,0.00,weatherlink.com 1.10,2013-01-27 11:07:00,
2013-01-27 06:22:00,18.2,15.0,30.43,ENE,73,2.0,4.0,87,0.00,,,0.00,weatherlink.com 1.10,2013-01-27 11:22:00,
2013-01-27 06:37:00,18.2,15.0,30.43,East,94,1.0,4.0,87,0.00,,,0.00,weatherlink.com 1.10,2013-01-27 11:37:00,
2013-01-27 06:52:00,18.3,15.0,30.43,SE,128,1.0,3.0,87,0.00,,,0.00,weatherlink.com 1.10,2013-01-27 11:52:00,
2013-01-27 07:07:00,18.4,15.0,30.44,East,100,0.0,4.0,87,0.00,,,0.00,weatherlink.com 1.10,2013-01-27 12:07:00,
2013-01-27 07:22:00,18.3,15.0,30.44,ENE,77,0.0,2.0,87,0.00,,,0.00,weatherlink.com 1.10,2013-01-27 12:22:00,
2013-01-27 07:37:00,18.1,15.0,30.44,East,96,1.0,2.0,87,0.00,,,0.00,weatherlink.com 1.10,2013-01-27 12:37:00,
2013-01-27 07:52:00,18.2,15.0,30.44,ENE,63,0.0,2.0,87,0.00,,,0.00,weatherlink.com 1.10,2013-01-27 12:52:00,
2013-01-27 08:07:00,18.5,15.0,30.44,SW,222,0.0,2.0,87,0.00,,,0.00,weatherlink.com 1.10,2013-01-27 13:07:00,
2013-01-27 08:22:00,19.1,16.0,30.45,ESE,107,0.0,2.0,87,0.00,,,0.00,weatherlink.com 1.10,2013-01-27 13:22:00,
2013-01-27 08:37:00,20.4,17.0,30.45,East,89,5.0,5.0,86,0.00,,,0.00,weatherlink.com 1.10,2013-01-27 13:37:00,
2013-01-27 08:52:00,21.6,18.0,30.44,ENE,61,1.0,6.0,85,0.00,,,0.00,weatherlink.com 1.10,2013-01-27 13:52:00,
2013-01-27 09:07:00,22.6,18.0,30.43,East,83,3.0,5.0,83,0.00,,,0.00,weatherlink.com 1.10,2013-01-27 14:07:00,
2013-01-27 09:22:00,23.4,19.0,30.43,East,88,2.0,11.0,82,0.00,,,0.00,weatherlink.com 1.10,2013-01-27 14:22:00,
2013-01-27 09:37:00,24.4,20.0,30.42,ENE,70,2.0,7.0,82,0.00,,,0.00,weatherlink.com 1.10,2013-01-27 14:37:00,
2013-01-27 09:52:00,25.1,20.0,30.41,ENE,65,4.0,12.0,81,0.00,,,0.00,weatherlink.com 1.10,2013-01-27 14:52:00,
2013-01-27 10:07:00,25.9,21.0,30.42,ESE,115,1.0,10.0,80,0.00,,,0.00,weatherlink.com 1.10,2013-01-27 15:07:00,
2013-01-27 10:22:00,26.7,21.0,30.42,ENE,78,3.0,7.0,79,0.00,,,0.00,weatherlink.com 1.10,2013-01-27 15:22:00,
2013-01-27 10:38:00,28.0,22.0,30.43,East,94,3.0,8.0,79,0.00,,,0.00,weatherlink.com 1.10,2013-01-27 15:38:00,
2013-01-27 10:53:00,28.8,23.0,30.43,ESE,110,1.0,7.0,78,0.00,,,0.00,weatherlink.com 1.10,2013-01-27 15:53:00,
2013-01-27 11:08:00,29.4,23.0,30.43,South,169,0.0,8.0,77,0.00,,,0.00,weatherlink.com 1.10,2013-01-27 16:08:00,
2013-01-27 11:23:00,30.2,24.0,30.43,ENE,66,0.0,5.0,77,0.00,,,0.00,weatherlink.com 1.10,2013-01-27 16:23:00,
2013-01-27 11:38:00,31.3,25.0,30.43,SSE,156,1.0,4.0,76,0.00,,,0.00,weatherlink.com 1.10,2013-01-27 16:38:00,
2013-01-27 11:53:00,31.1,24.0,30.41,ESE,112,2.0,7.0,75,0.00,,,0.00,weatherlink.com 1.10,2013-01-27 16:53:00,
2013-01-27 12:08:00,31.7,25.0,30.41,SSE,152,2.0,6.0,75,0.00,,,0.00,weatherlink.com 1.10,2013-01-27 17:08:00,
2013-01-27 12:23:00,32.5,25.0,30.41,ENE,78,3.0,6.0,74,0.00,,,0.00,weatherlink.com 1.10,2013-01-27 17:23:00,
2013-01-27 12:38:00,32.5,25.0,30.39,ESE,113,2.0,6.0,73,0.00,,,0.00,weatherlink.com 1.10,2013-01-27 17:38:00,
2013-01-27 12:53:00,32.9,25.0,30.38,ESE,118,4.0,6.0,73,0.00,,,0.00,weatherlink.com 1.10,2013-01-27 17:53:00,
2013-01-27 13:08:00,33.2,26.0,30.38,NE,50,1.0,6.0,74,0.01,,,0.01,weatherlink.com 1.10,2013-01-27 18:08:00,
2013-01-27 13:23:00,33.7,26.0,30.37,ENE,72,4.0,7.0,72,0.01,,,0.01,weatherlink.com 1.10,2013-01-27 18:23:00,
2013-01-27 13:38:00,33.6,25.0,30.36,ESE,107,5.0,8.0,72,0.01,,,0.01,weatherlink.com 1.10,2013-01-27 18:38:00,
2013-01-27 13:53:00,34.2,26.0,30.34,ESE,102,1.0,6.0,72,0.01,,,0.01,weatherlink.com 1.10,2013-01-27 18:53:00,
2013-01-27 14:08:00,34.6,26.0,30.34,ENE,72,3.0,8.0,72,0.01,,,0.02,weatherlink.com 1.10,2013-01-27 19:08:00,
2013-01-27 14:23:00,34.4,26.0,30.32,NE,43,1.0,7.0,72,0.01,,,0.02,weatherlink.com 1.10,2013-01-27 19:23:00,
2013-01-27 14:38:00,34.4,26.0,30.31,East,101,2.0,7.0,72,0.01,,,0.02,weatherlink.com 1.10,2013-01-27 19:38:00,
2013-01-27 14:53:00,34.1,26.0,30.29,East,87,3.0,8.0,72,0.02,,,0.03,weatherlink.com 1.10,2013-01-27 19:53:00,
2013-01-27 15:08:00,34.3,26.0,30.29,East,87,1.0,5.0,73,0.01,,,0.03,weatherlink.com 1.10,2013-01-27 20:08:00,
2013-01-27 15:23:00,34.7,27.0,30.28,ENE,78,2.0,6.0,72,0.01,,,0.03,weatherlink.com 1.10,2013-01-27 20:23:00,
2013-01-27 15:38:00,34.8,27.0,30.27,NE,56,2.0,8.0,72,0.01,,,0.03,weatherlink.com 1.10,2013-01-27 20:38:00,
2013-01-27 15:53:00,34.6,26.0,30.26,ENE,61,2.0,7.0,72,0.00,,,0.03,weatherlink.com 1.10,2013-01-27 20:53:00,
2013-01-27 16:09:00,34.4,27.0,30.26,NNW,340,3.0,7.0,73,0.00,,,0.03,weatherlink.com 1.10,2013-01-27 21:09:00,
2013-01-27 16:24:00,34.3,26.0,30.25,SSE,164,7.0,8.0,73,0.00,,,0.03,weatherlink.com 1.10,2013-01-27 21:24:00,
2013-01-27 16:39:00,34.3,26.0,30.25,ESE,112,3.0,9.0,73,0.00,,,0.03,weatherlink.com 1.10,2013-01-27 21:39:00,
2013-01-27 16:54:00,34.2,27.0,30.25,ENE,77,3.0,6.0,75,0.00,,,0.03,weatherlink.com 1.10,2013-01-27 21:54:00,
2013-01-27 17:09:00,34.0,27.0,30.25,ENE,70,2.0,5.0,76,0.00,,,0.03,weatherlink.com 1.10,2013-01-27 22:09:00,
2013-01-27 17:24:00,34.1,28.0,30.25,SSW,210,0.0,5.0,77,0.00,,,0.03,weatherlink.com 1.10,2013-01-27 22:24:00,
2013-01-27 17:39:00,34.2,27.0,30.25,SE,134,5.0,8.0,76,0.00,,,0.03,weatherlink.com 1.10,2013-01-27 22:39:00,
2013-01-27 17:54:00,34.2,28.0,30.23,SSE,152,2.0,7.0,77,0.00,,,0.03,weatherlink.com 1.10,2013-01-27 22:54:00,
2013-01-27 18:09:00,33.9,28.0,30.23,East,98,1.0,7.0,79,0.01,,,0.04,weatherlink.com 1.10,2013-01-27 23:09:00,
2013-01-27 18:24:00,34.0,28.0,30.24,South,180,6.0,6.0,79,0.01,,,0.04,weatherlink.com 1.10,2013-01-27 23:24:00,
2013-01-27 18:39:00,34.2,29.0,30.25,West,264,1.0,7.0,80,0.01,,,0.04,weatherlink.com 1.10,2013-01-27 23:39:00,
2013-01-27 18:54:00,34.1,29.0,30.25,ENE,72,3.0,6.0,81,0.02,,,0.05,weatherlink.com 1.10,2013-01-27 23:54:00,
2013-01-27 19:09:00,33.9,29.0,30.26,East,98,0.0,5.0,83,0.02,,,0.06,weatherlink.com 1.10,2013-01-28 00:09:00,
2013-01-27 19:24:00,34.0,30.0,30.26,East,95,0.0,5.0,84,0.02,,,0.06,weatherlink.com 1.10,2013-01-28 00:24:00,
2013-01-27 19:39:00,33.9,30.0,30.27,NE,51,0.0,4.0,85,0.03,,,0.07,weatherlink.com 1.10,2013-01-28 00:39:00,
2013-01-27 19:54:00,33.6,30.0,30.26,East,85,1.0,5.0,88,0.03,,,0.08,weatherlink.com 1.10,2013-01-28 00:54:00,
2013-01-27 20:09:00,33.4,31.0,30.25,NE,35,1.0,3.0,90,0.04,,,0.10,weatherlink.com 1.10,2013-01-28 01:09:00,
2013-01-27 20:24:00,33.2,31.0,30.24,NE,47,3.0,5.0,91,0.07,,,0.13,weatherlink.com 1.10,2013-01-28 01:24:00,
2013-01-27 20:39:00,33.2,31.0,30.22,NE,55,2.0,8.0,92,0.09,,,0.16,weatherlink.com 1.10,2013-01-28 01:39:00,
2013-01-27 20:54:00,33.2,31.0,30.21,ENE,76,0.0,7.0,92,0.10,,,0.18,weatherlink.com 1.10,2013-01-28 01:54:00,
2013-01-27 21:09:00,33.3,32.0,30.19,East,84,1.0,8.0,93,0.10,,,0.20,weatherlink.com 1.10,2013-01-28 02:09:00,
2013-01-27 21:24:00,33.5,32.0,30.19,NE,53,2.0,7.0,93,0.09,,,0.22,weatherlink.com 1.10,2013-01-28 02:24:00,
2013-01-27 21:39:00,33.7,32.0,30.19,SE,136,3.0,10.0,93,0.08,,,0.24,weatherlink.com 1.10,2013-01-28 02:39:00,
2013-01-27 21:54:00,33.9,32.0,30.17,ESE,115,4.0,11.0,93,0.07,,,0.26,weatherlink.com 1.10,2013-01-28 02:54:00,
2013-01-27 22:09:00,34.2,32.0,30.14,SE,139,2.0,10.0,93,0.07,,,0.27,weatherlink.com 1.10,2013-01-28 03:09:00,
2013-01-27 22:24:00,34.6,33.0,30.13,ESE,104,9.0,13.0,94,0.06,,,0.28,weatherlink.com 1.10,2013-01-28 03:24:00,
2013-01-27 22:39:00,35.0,34.0,30.12,SE,124,5.0,11.0,94,0.05,,,0.29,weatherlink.com 1.10,2013-01-28 03:39:00,
2013-01-27 22:54:00,35.2,34.0,30.11,ESE,107,4.0,10.0,94,0.04,,,0.30,weatherlink.com 1.10,2013-01-28 03:54:00,
2013-01-27 23:09:00,35.4,34.0,30.11,SE,146,6.0,10.0,94,0.04,,,0.31,weatherlink.com 1.10,2013-01-28 04:09:00,
2013-01-27 23:24:00,35.7,34.0,30.11,SE,142,2.0,13.0,94,0.03,,,0.31,weatherlink.com 1.10,2013-01-28 04:24:00,
2013-01-27 23:39:00,36.1,35.0,30.10,East,89,1.0,6.0,94,0.03,,,0.32,weatherlink.com 1.10,2013-01-28 04:39:00,
2013-01-27 23:54:00,36.5,35.0,30.09,SE,124,3.0,7.0,95,0.03,,,0.33,weatherlink.com 1.10,2013-01-28 04:54:00,